Weather History for Rabat-Sale, Morocco

Change the Weather History Date:

Tuesday, August 19, 2014

  Actual Average Record
Temperature  
Mean Temperature 72 °F -  
Max Temperature 78 °F 77 °F 100 °F (2011)
Min Temperature 66 °F 62 °F 59 °F (1996)
Cooling Degree Days 7    
Growing Degree Days 22 (Base 50)    
Moisture  
Dew Point 63 °F    
Average Humidity 73    
Maximum Humidity 94    
Minimum Humidity 51    
Precipitation  
Precipitation 0.00 in 0.01 in - ()
Sea Level Pressure  
Sea Level Pressure 30.02 in    
Wind  
Wind Speed 5 mph ()    
Max Wind Speed 10 mph    
Max Gust Speed -    
Visibility 5.1 miles    
Events      
Averages and records for this station are not official NWS values.
T = Trace of Precipitation, MM = Missing Value Source: Averaged Metar Reports

Daily Weather History Graph

Daily Weather History Graph

Search for Another Location

Airport:

Trip Planner

Search our weather history database for the weather conditions in past years. The results will help you decide how hot, cold, wet, or windy it might be!

Date:

Astronomy

Aug. 19, 2014 Rise Set
Actual Time 6:51 AM WEST 8:09 PM WEST
Civil Twilight 6:25 AM WEST 8:35 PM WEST
Nautical Twilight 5:53 AM WEST 9:06 PM WEST
Astronomical Twilight 5:21 AM WEST 9:39 PM WEST
Moon 1:37 AM WEST (8/19) 3:49 PM WEST (8/19)
Length of Visible Light 14h 10m
Length of Day
13h 18m
Waning Crescent, 31% of the Moon is Illuminated
Aug 19
Waning Crescent
Aug 25
New
Sep 2
First Quarter
Sep 9
Full
Sep 16
Last Quarter

Hourly Weather History & Observations

Time (WEST) Temp. Dew Point Humidity Pressure Visibility Wind Dir Wind Speed Gust Speed Precip Events Conditions
12:00 AM 73.4 °F 68.0 °F 83% 29.95 in 3.7 mi West 5.8 mph - N/A   Scattered Clouds
12:30 AM 73.4 °F 68.0 °F 83% 29.95 in 6.2 mi West 6.9 mph - N/A   Scattered Clouds
1:00 AM 73 °F 67 °F 76% 29.96 in 6 mi West 4.6 mph - -   Mostly Cloudy
1:00 AM 73.4 °F 68.0 °F 83% 29.95 in 6.2 mi West 4.6 mph - N/A   Scattered Clouds
1:30 AM 73.4 °F 66.2 °F 78% 29.95 in 6.2 mi NW 8.1 mph - N/A   Scattered Clouds
2:00 AM 73.4 °F 66.2 °F 78% 29.95 in 6.2 mi NW 8.1 mph - N/A   Scattered Clouds
2:30 AM 71.6 °F 66.2 °F 83% 29.95 in 6.2 mi WNW 5.8 mph - N/A   Scattered Clouds
3:00 AM 71.6 °F 66.2 °F 83% 29.95 in 6.2 mi WNW 6.9 mph - N/A   Scattered Clouds
3:30 AM 71.6 °F 66.2 °F 83% 29.95 in 6.2 mi NW 5.8 mph - N/A   Scattered Clouds
4:00 AM 71 °F 65 °F 78% 29.96 in 6 mi NNW 3.5 mph - -   Partly Cloudy
4:30 AM 69.8 °F 64.4 °F 83% 29.95 in 6.2 mi WNW 2.3 mph - N/A   Scattered Clouds
5:00 AM 68.0 °F 64.4 °F 88% 29.95 in 4.3 mi Calm Calm - N/A   Scattered Clouds
5:30 AM 68.0 °F 64.4 °F 88% 29.95 in 5.0 mi Calm Calm - N/A   Scattered Clouds
6:00 AM 68.0 °F 64.4 °F 88% 29.95 in 5.0 mi Calm Calm - N/A   Scattered Clouds
6:30 AM 68.0 °F 64.4 °F 88% 29.98 in 5.6 mi NNW 1.2 mph - N/A   Scattered Clouds
7:00 AM 67 °F 63 °F 84% 29.98 in 4 mi Calm Calm - -   Mostly Cloudy
7:00 AM 66.2 °F 62.6 °F 88% 29.98 in 3.7 mi Calm Calm - N/A   Scattered Clouds
7:30 AM 66.2 °F 62.6 °F 88% 29.98 in 3.7 mi Calm Calm - N/A   Scattered Clouds
8:00 AM 68.0 °F 66.2 °F 94% 29.98 in 3.7 mi Calm Calm - N/A   Scattered Clouds
8:30 AM 71.6 °F 64.4 °F 78% 30.01 in 3.7 mi WNW 4.6 mph - N/A   Scattered Clouds
9:00 AM 73.4 °F 62.6 °F 69% 30.01 in 3.7 mi NNW 4.6 mph - N/A   Scattered Clouds
9:30 AM 73.4 °F 62.6 °F 69% 30.01 in 3.7 mi NW 5.8 mph - N/A   Scattered Clouds
10:00 AM 74 °F 62 °F 58% 30.01 in 4 mi NW 6.9 mph - -   Partly Cloudy
10:00 AM 75.2 °F 62.6 °F 65% 30.01 in 3.7 mi NW 6.9 mph - N/A   Scattered Clouds
10:30 AM 75.2 °F 62.6 °F 65% 30.01 in 3.7 mi NW 6.9 mph - N/A   Scattered Clouds
11:00 AM 75.2 °F 62.6 °F 65% 30.04 in 3.7 mi NW 9.2 mph - N/A   Scattered Clouds
12:00 PM 75.2 °F 62.6 °F 65% 30.04 in 5.0 mi NW 9.2 mph - N/A   Scattered Clouds
12:30 PM 75.2 °F 62.6 °F 65% 30.04 in 3.7 mi NW 9.2 mph - N/A   Scattered Clouds
1:00 PM 76 °F 62 °F 53% 30.04 in 5 mi NW 9.2 mph - -   Partly Cloudy
1:00 PM 77.0 °F 62.6 °F 61% 30.04 in 5.0 mi NW 9.2 mph - N/A   Scattered Clouds
1:30 PM 75.2 °F 62.6 °F 65% 30.04 in 5.0 mi NNW 9.2 mph - N/A   Scattered Clouds
2:00 PM 77.0 °F 62.6 °F 61% 30.04 in - NW 9.2 mph - N/A   Clear
2:30 PM 77.0 °F 62.6 °F 61% 30.04 in - NNW 10.4 mph - N/A   Clear
3:00 PM 77.0 °F 60.8 °F 57% 30.04 in - NNW 10.4 mph - N/A   Clear
3:30 PM 75.2 °F 60.8 °F 61% 30.04 in - NNW 9.2 mph - N/A   Clear
4:00 PM 77 °F 62 °F 51% 30.03 in 6 mi NNW 9.2 mph - -  
4:00 PM 77.0 °F 62.6 °F 61% 30.04 in - NNW 9.2 mph - N/A   Clear
4:30 PM 77.0 °F 62.6 °F 61% 30.04 in - NNW 9.2 mph - N/A   Clear
5:00 PM 75.2 °F 60.8 °F 61% 30.04 in - North 10.4 mph - N/A   Clear
5:30 PM 75.2 °F 62.6 °F 65% 30.04 in 6.2 mi NNW 10.4 mph - N/A   Partly Cloudy
6:00 PM 75.2 °F 60.8 °F 61% 30.04 in 6.2 mi NNW 10.4 mph - N/A   Scattered Clouds
6:30 PM 73.4 °F 60.8 °F 65% 30.04 in 6.2 mi NNW 10.4 mph - N/A   Scattered Clouds
7:00 PM 72 °F 61 °F 61% 30.04 in 6 mi North 10.4 mph - -   Partly Cloudy
7:00 PM 71.6 °F 60.8 °F 69% 30.04 in 6.2 mi North 10.4 mph - N/A   Scattered Clouds
7:30 PM 71.6 °F 60.8 °F 69% 30.04 in 6.2 mi North 9.2 mph - N/A   Mostly Cloudy
8:00 PM 71.6 °F 60.8 °F 69% 30.06 in 6.2 mi North 8.1 mph - N/A   Mostly Cloudy
8:30 PM 69.8 °F 60.8 °F 73% 30.06 in 5.0 mi NNW 5.8 mph - N/A   Mostly Cloudy
9:00 PM 69.8 °F 60.8 °F 73% 30.09 in 5.0 mi North 4.6 mph - N/A   Mostly Cloudy
9:30 PM 69.8 °F 60.8 °F 73% 30.09 in 5.0 mi North 4.6 mph - N/A   Mostly Cloudy
10:00 PM 66 °F 60 °F 74% 30.10 in 5 mi Calm Calm - -   Mostly Cloudy
10:00 PM 66.2 °F 59.0 °F 78% 30.09 in 5.0 mi Calm Calm - N/A   Mostly Cloudy
10:30 PM 66.2 °F 60.8 °F 83% 30.09 in 5.0 mi ESE 1.2 mph - N/A   Mostly Cloudy
11:00 PM 66.2 °F 60.8 °F 83% 30.09 in 5.0 mi SE 3.5 mph - N/A   Mostly Cloudy
11:30 PM 66.2 °F 60.8 °F 83% 30.09 in 5.0 mi SE 2.3 mph - N/A   Mostly Cloudy